HISPASAT 30W-6 (43228 NORAD) Tracking and Keplerian Element Data

This shows tracking and keplerian element data for the satellite.

Feedback or suggestion? Click here.




ElementValue
Catalog43228
NameHISPASAT 30W-6
Epoch Orbit1071
Epoch Day21.1201509
Epoch Year2021
RAAN47.769
Inclination0.0398
Eccentricity0.0003605
Argument of Perigee294.0672
Mean Anonmoly152.0751
Mean Motion1.00267559
Decay Rate-2.08E-06
L11 43228U 18023A 21021.12015090 -.00000208 00000-0 00000+0 0 9997
L22 43228 0.0398 47.7690 0003605 294.0672 152.0751 1.00267559 10713

Live tracking and technical data element details for HISPASAT 30W-6 (NORAD 43228). HISPASAT 30W-6 can be tracked NOW for your location showing map with azimuth and elevation plus other details from your city location.

Track the satellite on the map from your city or location and see movement details for azimuth, elevation, latitude, longitude, range, height, and movement on the map or in text.







IsCatalogInMostPopularTable: catalog: 43228, numindb: 691
Update: records affected: 1



GetName: 43228 HISPASAT 30W-6

Hit Count: updated at: Sat, 23 Jan 2021 05:01:28 GMT